| time (UTC) | temp F | wind direction | speed knots | gust knots | rain 1hr in | rain 24hr in | rain mn in | humidity % | barometer mb |
| 20260505014520 | 62 | 154 | 0.9 | 12.2 | 0.00 | 0.00 | 0.00 | 48 | 1008.6 |
| 20260505013023 | 61 | 266 | 0.0 | 7.0 | 0.00 | 0.00 | 0.00 | 50 | 1008.3 |
| 20260505011515 | 57 | 200 | 0.0 | 0.0 | 0.00 | 0.00 | 0.00 | 57 | 1008.0 |
| 20260505010010 | 58 | 200 | 0.0 | 0.0 | 0.00 | 0.00 | 0.00 | 53 | 1007.7 |
| 20260505004505 | 59 | 200 | 0.0 | 0.0 | 0.00 | 0.00 | 0.00 | 50 | 1007.4 |
| 20260505003003 | 61 | 200 | 0.0 | 0.0 | 0.00 | 0.00 | 0.00 | 45 | 1007.1 |
| 20260505001559 | 64 | 200 | 0.0 | 0.9 | 0.00 | 0.00 | 0.00 | 44 | 1006.8 |
| 20260504234600 | 66 | 238 | 0.0 | 0.0 | 0.00 | 0.00 | 0.00 | 38 | 1006.4 |
| 20260504233045 | 67 | 238 | 0.0 | 0.0 | 0.00 | 0.00 | 0.00 | 37 | 1006.4 |
| 20260504231555 | 68 | 230 | 0.0 | 2.6 | 0.00 | 0.00 | 0.00 | 36 | 1006.1 |
| 20260504230036 | 69 | 227 | 0.0 | 0.0 | 0.00 | 0.00 | 0.00 | 35 | 1005.9 |
| 20260504224537 | 69 | 273 | 0.0 | 2.6 | 0.00 | 0.00 | 0.00 | 34 | 1005.7 |
| 20260504223028 | 70 | 233 | 0.0 | 0.9 | 0.00 | 0.00 | 0.00 | 34 | 1005.6 |
| 20260504221522 | 71 | 317 | 0.0 | 3.5 | 0.00 | 0.00 | 0.00 | 33 | 1005.6 |
| 20260504220020 | 72 | 305 | 0.0 | 5.2 | 0.00 | 0.00 | 0.00 | 31 | 1005.6 |
| 20260504214515 | 72 | 316 | 0.0 | 6.1 | 0.00 | 0.00 | 0.00 | 31 | 1005.5 |
| 20260504213011 | 72 | 229 | 0.0 | 5.2 | 0.00 | 0.00 | 0.00 | 32 | 1005.5 |
| 20260504211504 | 73 | 243 | 0.0 | 7.8 | 0.00 | 0.00 | 0.00 | 29 | 1005.7 |
| 20260504210001 | 73 | 168 | 0.0 | 6.1 | 0.00 | 0.00 | 0.00 | 31 | 1005.4 |
| 20260504204603 | 74 | 241 | 0.0 | 6.1 | 0.00 | 0.00 | 0.00 | 30 | 1005.4 |
| 20260504203052 | 73 | 290 | 0.0 | 5.2 | 0.00 | 0.00 | 0.00 | 31 | 1005.6 |
| 20260504201550 | 74 | 170 | 0.0 | 1.7 | 0.00 | 0.00 | 0.00 | 30 | 1005.6 |
| 20260504200042 | 75 | 319 | 0.0 | 3.5 | 0.00 | 0.00 | 0.00 | 30 | 1005.6 |
| 20260504194558 | 74 | 240 | 0.0 | 4.3 | 0.00 | 0.00 | 0.00 | 29 | 1005.7 |
| 20260504193034 | 73 | 184 | 0.0 | 7.8 | 0.00 | 0.00 | 0.00 | 31 | 1005.8 |
| 20260504191540 | 73 | 111 | 0.0 | 4.3 | 0.00 | 0.00 | 0.00 | 31 | 1005.8 |
| 20260504190029 | 71 | 199 | 0.0 | 4.3 | 0.00 | 0.00 | 0.00 | 31 | 1005.9 |
| 20260504184530 | 70 | 252 | 0.0 | 5.2 | 0.00 | 0.00 | 0.00 | 32 | 1006.1 |
| 20260504183019 | 70 | 290 | 0.0 | 5.2 | 0.00 | 0.00 | 0.00 | 34 | 1006.1 |
| 20260504181514 | 70 | 206 | 0.9 | 13.0 | 0.00 | 0.00 | 0.00 | 31 | 1006.0 |
| 20260504180014 | 71 | 237 | 0.0 | 3.5 | 0.00 | 0.00 | 0.00 | 31 | 1006.1 |
| 20260504174506 | 71 | 242 | 0.9 | 15.6 | 0.00 | 0.00 | 0.00 | 31 | 1006.1 |
| 20260504173003 | 70 | 212 | 0.9 | 10.4 | 0.00 | 0.00 | 0.00 | 30 | 1006.3 |
| 20260504171557 | 70 | 274 | 0.0 | 13.9 | 0.00 | 0.00 | 0.00 | 34 | 1006.2 |
| 20260504140124 | 62 | 287 | 0.0 | 2.6 | 0.00 | 0.02 | 0.00 | 46 | 1008.6 |
| 20260504081519 | 39 | 34 | 0.0 | 0.0 | 0.00 | 0.02 | 0.00 | 1 | 1010.0 |
| 20260504050021 | 33 | 34 | 0.0 | 0.0 | 0.00 | 0.02 | 0.00 | 1 | 1009.8 |
| 20260504044515 | 33 | 33 | 0.0 | 0.0 | 0.00 | 0.02 | 0.00 | 6 | 1009.9 |
| 20260504043011 | 34 | 33 | 0.0 | 0.0 | 0.00 | 0.02 | 0.00 | 9 | 1009.8 |
| 20260504041507 | 34 | 33 | 0.0 | 0.0 | 0.00 | 0.02 | 0.00 | 17 | 1009.8 |
| 20260504040007 | 35 | 34 | 0.0 | 0.0 | 0.00 | 0.02 | 0.02 | 18 | 1009.8 |
| 20260504034558 | 35 | 33 | 0.0 | 0.0 | 0.00 | 0.02 | 0.02 | 26 | 1009.7 |
| 20260504033057 | 36 | 33 | 0.0 | 0.0 | 0.00 | 0.02 | 0.02 | 27 | 1009.6 |
| 20260504031612 | 36 | 34 | 0.0 | 0.0 | 0.00 | 0.02 | 0.02 | 38 | 1009.3 |
| 20260504030045 | 37 | 33 | 0.0 | 0.0 | 0.00 | 0.02 | 0.02 | 46 | 1009.3 |
| 20260504024543 | 38 | 34 | 0.0 | 0.0 | 0.00 | 0.02 | 0.02 | 50 | 1009.3 |
| 20260504023037 | 39 | 34 | 0.0 | 0.0 | 0.00 | 0.02 | 0.02 | 57 | 1009.4 |
| 20260504021532 | 40 | 33 | 0.0 | 0.0 | 0.00 | 0.02 | 0.02 | 59 | 1009.3 |
| 20260504020030 | 40 | 34 | 0.0 | 0.0 | 0.00 | 0.03 | 0.02 | 60 | 1009.2 |